Location: ?
(35.4214°N, 139.3011°E)
Time: 20:40:21
(UTC+00:00)

Meteor 2-17 Rocket - Pass Details

Date: 25 October 2020
Orbit: 935 x 956 km, 82.5° (Epoch: 04 December)

Event Time Altitude Azimuth Distance (km) Brightness Sun altitude
Rises 10:38:55 0° 357° (N) 3,599 7.6 -33.9°
Reaches altitude 10° 10:41:27 10° 1° (N) 2,651 6.8 -34.4°
Enters shadow 10:41:32 10° 1° (N) 2,620 6.8 -34.4°
